Location: La Fredeussais
(48.1780°N, 1.3980°W)
Time: 11:14:53
(UTC+00:00)

PRISM - Pass Details

Date: 26 October 2021
Orbit: 561 x 584 km, 98.2° (Epoch: 29 November)

Event Time Altitude Azimuth Distance (km) Brightness Sun altitude
Rises 05:15:46 0° 1° (N) 2,804 ? -14.9°
Reaches altitude 10° 05:18:20 10° 346° (NNW) 1,896 ? -14.5°
Enters shadow 05:21:22 21° 298° (WNW) 1,334 ? -14.0°
